Regional Weather Roundup
Issued by NWS

Home | Current Version | Previous Version | Graphics & Text | Print | Product List | Glossary Off
Versions: 1 2 3 4 5 6 7 8 9 10 11 12 13 14 15 16 17 18 19 20 21 22 23 24 25 26 27 28 29 30 31 32 33 34 35 36 37 38 39 40 41 42 43 44 45 46 47 48 49 50

000
ASUS43 KMKX 021911
RWRWI

WISCONSIN REGIONAL WEATHER ROUNDUP
NATIONAL WEATHER SERVICE MILWAUKEE/SULLIVAN WI
100 PM CST FRI DEC 02 2016

NOTE: "FAIR" INDICATES FEW OR NO CLOUDS BELOW 12,000 FEET WITH NO
SIGNIFICANT WEATHER AND/OR OBSTRUCTIONS TO VISIBILITY.

WIZ001-002-006>008-014>016-023>028-022000-
NORTHWEST WISCONSIN

CITY           SKY/WX    TMP DP  RH WIND       PRES   REMARKS
SUPERIOR ARPT  CLOUDY    30  23  74 W6        30.22S WCI  24
ASHLAND        CLOUDY    31  26  82 W13       30.19S WCI  21
HAYWARD        CLOUDY    29  22  75 NW5       30.19S WCI  24
SIREN          CLOUDY    30  23  73 N5        30.22R WCI  25
CUMBERLAND     CLOUDY    30  23  74 W5        30.20R WCI  25
RICE LAKE      CLOUDY    31  24  76 NW5       30.21S WCI  26
CHETEK         CLOUDY    31  24  74 CALM      30.20S
LADYSMITH      CLOUDY    32  25  76 W7        30.20R WCI  25
EAU CLAIRE     CLOUDY    32  23  69 NW5       30.21R WCI  27
MENOMONIE      CLOUDY    33  26  76 W8        30.22R WCI  26
NEW RICHMOND   CLOUDY    31  26  78 NW7       30.22S WCI  25
OSCEOLA        NOT AVBL
$$

WIZ003>005-009-010-017-018-022000-
NORTH CENTRAL WISCONSIN

CITY           SKY/WX    TMP DP  RH WIND       PRES   REMARKS
MANITOWISH WTR CLOUDY    28  28 100 W6        30.14R WCI  22
ARBOR VITAE    CLOUDY    32  28  84 CALM      30.13S
WOODRUFF       CLOUDY    32  28  84 CALM      30.13S
RHINELANDER    CLOUDY    31  26  82 W8        30.13S WCI  23
EAGLE RIVER    CLOUDY    29  29  99 W7        30.12R FOG     WCI  22
LAND O LAKES   CLOUDY    30  28  93 NW5       30.13R FOG     WCI  25
PHILLIPS       CLOUDY    29  24  82 NW3       30.15S
TOMAHAWK       CLOUDY    30  24  77 W6        30.15S WCI  24
MEDFORD        CLOUDY    30  23  76 W6        30.15S WCI  24
MERRILL        CLOUDY    32  25  76 NW6       30.16R WCI  26
$$

WIZ029-030-035-036-043>047-022000-
CENTRAL WISCONSIN

CITY           SKY/WX    TMP DP  RH WIND       PRES   REMARKS
WAUSAU         CLOUDY    32  24  72 W9        30.15R WCI  24
MOSINEE        CLOUDY    30  25  80 NW7       30.17R WCI  23
MARSHFIELD     CLOUDY    30  21  69 W10       30.17R WCI  21
STEVENS POINT  CLOUDY    30  22  71 NW7       30.18R WCI  23
WAUPACA        CLOUDY    36  25  65 W9        30.18R WCI  29
WAUTOMA        CLOUDY    33  23  66 NW8       30.19R WCI  26
WISC RAPIDS    CLOUDY    32  23  69 NW9       30.20R WCI  24
CAMP DOUGLAS   CLOUDY    32  24  71 NW7       30.19S WCI  26
$$

WIZ011>013-019>022-031-037>040-048>050-022000-
NORTHEAST WISCONSIN

CITY           SKY/WX    TMP DP  RH WIND       PRES   REMARKS
ANTIGO         CLOUDY    31  24  77 NW8       30.13S WCI  23
SHAWANO        CLOUDY    37  27  67 W7        30.15S WCI  31
OCONTO         CLOUDY    36  26  69 NW6       30.14R WCI  31
STURGEON BAY   CLOUDY    35  27  72 NW12      30.13R WCI  27
GREEN BAY      CLOUDY    37  29  72 NW13      30.15R WCI  29
MANITOWOC      CLOUDY    35  25  66 W12       30.16R WCI  27
APPLETON       CLOUDY    34  23  64 W12       30.14R WCI  25
CLINTONVILLE   CLOUDY    34  25  69 W10       30.16R WCI  26
OSHKOSH        CLOUDY    33  24  69 W10       30.17R WCI  25
$$

WIZ032>034-041-042-053>061-022000-
SOUTHWEST WISCONSIN

CITY           SKY/WX    TMP DP  RH WIND       PRES   REMARKS
LA CROSSE      CLOUDY    35  24  64 NW12      30.23R WCI  27
SPARTA         CLOUDY    32  24  70 NW7       30.22S WCI  26
VIROQUA        CLOUDY    31  24  76 W8        30.20R WCI  24
BOSCOBEL       CLOUDY    35  22  58 W9        30.24R WCI  28
PRAIRIE DU CHI CLOUDY    34  22  62 W10       30.24S WCI  26
PLATTEVILLE    CLOUDY    34  27  76 W9        30.21S WCI  26
$$

WIZ056-057-062-063-064-067-068-022000-
SOUTH CENTRAL WISCONSIN

CITY           SKY/WX    TMP DP  RH WIND       PRES   REMARKS
REEDSBURG      CLOUDY    32  23  69 NW9       30.19S WCI  24
BARABOO/DELLS  CLOUDY    32  22  67 NW9       30.19R WCI  24
LONE ROCK      CLOUDY    34  22  61 NW9       30.22R WCI  27
MINERAL POINT  CLOUDY    34  27  75 NW6       30.19R WCI  29
MADISON        CLOUDY    33  23  66 NW6       30.19R WCI  28
MIDDLETON      CLOUDY    34  25  70 NW8       30.20R WCI  27
WATERTOWN      CLOUDY    33  24  68 NW8       30.18R WCI  26
MONROE         CLOUDY    34  27  75 W9        30.19R WCI  26
JANESVILLE     CLOUDY    37  27  65 NW7       30.18R WCI  32
$$

WIZ051-052-058>065-066-070>072-022000-
SOUTHEAST WISCONSIN

CITY           SKY/WX    TMP DP  RH WIND       PRES   REMARKS
MILWAUKEE      CLOUDY    37  23  56 NW12      30.16S WCI  29
WAUKESHA       CLOUDY    32  23  69 NW12      30.17R WCI  23
MILWAUKEE/TIMM CLOUDY    36  21  55 NW10      30.18R WCI  28
RACINE         CLOUDY    36  22  56 W8        30.19R WCI  30
BURLINGTON     CLOUDY    34  25  68 NW7G17    30.18R WCI  28
KENOSHA        CLOUDY    35  24  64 W13       30.18R WCI  26
FOND DU LAC    CLOUDY    33  22  63 NW13      30.17R WCI  24
SHEBOYGAN      CLOUDY    34  24  67 NW10      30.16R WCI  26
WEST BEND      CLOUDY    32  25  74 NW10G16   30.16S WCI  24
JUNEAU         CLOUDY    32  24  71 NW8       30.19R WCI  25
$$

LSZ147-162-022000-
LAKE SUPERIOR

STATION/POSITION TIME  TEMP    WIND        PRES    WAVE
                       AIR SEA DIR/SP/G            HT/PER
                 (UTC) (F)     (DEG/KT/KT) (MB)    (FT/S)
DEVILS ISLAND    1900   32     260/ 10/ 12 1022.8R
PORT WING        1830   31     290/  7/ 11 1022.7S
SAXON HARBOR     1830   32     260/  4/  8 1022.0R
$$

LMZ867-665-643>646-022000-
LAKE MICHIGAN

STATION/POSITION TIME  TEMP    WIND        PRES    WAVE
                       AIR SEA DIR/SP/G            HT/PER
                 (UTC) (F)     (DEG/KT/KT) (MB)    (FT/S)
CHAMBERS ISLAND  1840   36     270/  4/ 10 1019.6R
NORTHPORT PIER   1840   37     300/ 13/ 19 1019.6R
SISTER BAY       1838   37     330/ 15/ 18   N/A
ALGOMA LAKESHORE 1821          300/  9/ 12   N/A
KEWAUNEE LAKESHO 1848   35     290/  9/ 12 1020.1R
SHEBOYGAN LAKESH 1900   34     300/ 14/ 16 1021.7R
PORT WASHINGTON  1840   36     300/  7/ 11 1022.4R
MILWAUKEE LAKESH 1850   35     290/ 10/ 12   N/A
S MID LAKE BUOY  1850   37 49  300/ 14/ 17 1021.3R   3/ 6
KENOSHA   LAKESH 1900   35     310/  8/ 13 1022.0
$$

TC  - TEMPERATURE IN CELSIUS
VSB - VISIBILITY IN STATUTE MILES
WCI - WIND CHILL INDEX
HX  - HEAT INDEX





USA.gov is the U.S. government's official web portal to all federal, state and local government web resources and services.